Regional Weather Roundup
Issued by NWS Huntsville, AL

Home | Current Version | Previous Version | Text Only | Print | Product List | Glossary On
Versions: 1 2 3 4 5 6 7 8 9 10 11 12 13 14 15 16 17 18 19 20 21 22 23 24 25 26 27 28
000
ASUS44 KHUN 212110
RWRHUN

WEATHER ROUNDUP FOR THE TENNESSEE VALLEY
NATIONAL WEATHER SERVICE HUNTSVILLE AL
400 PM CDT SAT OCT 21 2017

ALZ001>004-212200-
NORTHWEST ALABAMA

CITY           SKY/WX    TMP DP  RH WIND       PRES   REMARKS
COURTLAND HCN    N/A     77 N/A N/A SE7         N/A
RUSSELLVILLE     N/A     75 N/A N/A MISG        N/A
SHOALS AIRPORT MOSUNNY   77  61  57 SE8       30.16S
SHOALS TVA RES   N/A     75 N/A N/A MISG        N/A
$$

ALZ005>007-016-212200-
NORTH CENTRAL ALABAMA

CITY           SKY/WX    TMP DP  RH WIND       PRES   REMARKS
CULLMAN AG STN   N/A     77 N/A N/A S5          N/A
DECATUR AP     CLOUDY    77  61  57 SE8       30.17S
HUNTSVILLE AP  PTSUNNY   77  61  57 SE9       30.17S
MERIDIANVILLE  MOSUNNY   75  55  50 SE6       30.19S
REDSTONE ARSN  CLOUDY    75  59  57 S8        30.17R HAZE
VINEMONT AP    FAIR      75  58  54 CALM      30.21R
$$

ALZ008>010-212200-
NORTHEAST ALABAMA

CITY           SKY/WX    TMP DP  RH WIND       PRES   REMARKS
ALBERTVILLE    CLOUDY    73  63  68 S8        30.19S
FORT PAYNE     CLOUDY    73  52  46 SE6       30.21S
SCOTTSBORO AP  CLOUDY    77  55  47 VRB6      30.20S
SCOTTSBORO HCN   N/A     77 N/A N/A MISG        N/A
VALLEY HEAD      N/A     73 N/A N/A MISG        N/A
$$

TNZ076-096-097-212200-
SOUTHEASTERN MIDDLE TENNESSEE

CITY           SKY/WX    TMP DP  RH WIND       PRES   REMARKS
TULLAHOMA      SUNNY     73  48  40 SE5       30.21S
WINCHESTER     SUNNY     75  50  41 SE7         N/A
$$

...SURROUNDING SITES...

CITY           SKY/WX    TMP DP  RH WIND       PRES   REMARKS
ATLANTA        PTSUNNY   75  56  51 SE8       30.25R
ANNISTON       MOSUNNY   78  59  51 VRB6      30.20S
BIRMINGHAM     PTSUNNY   78  58  49 SE10      30.19F
CHATTANOOGA    CLOUDY    78  47  33 SE7       30.23R
CORINTH        FAIR      81  61  50 SE13      30.12R
DALTON         SUNNY     77  46  33 SE8       30.25S
GADSDEN        CLOUDY    77  59  53 SE7       30.20R
GOLDEN TRNGL   CLOUDY    79  63  57 SE14      30.11S
HALEYVILLE     FAIR      75  63  66 SE12      30.19R
JACKSON TN     MOSUNNY   80  64  58 SE8       30.11S
MEMPHIS        PTSUNNY   81  61  50 SE10      30.06S
NASHVILLE      CLOUDY    78  57  48 S8        30.17F
OXFORD MS      FAIR      81  63  54 SE14G21   30.09F
ROME           SUNNY     76  52  43 SE9       30.22S
SAVANNAH       SUNNY     79  63  57 S10G17    30.12S
SELMER         SUNNY     79  61  53 SE12      30.12S
TUPELO         PTSUNNY   78  61  55 SE12      30.11S
TUSCALOOSA     MOSUNNY   79  63  57 SE6       30.13F
$$

...GULF COAST WEATHER...

CITY           SKY/WX    TMP DP  RH WIND       PRES   REMARKS
GULFPORT       MOSUNNY   82  74  76 E20       30.05S
PASCAGOULA     PTSUNNY   82  70  66 SE18G28   30.06F
MOBILE         MOSUNNY   80  69  69 E15       30.09F
GULF SHORES    MOCLDY    78  73  84 E13G20    30.09S
PENSACOLA      PTSUNNY   80  70  71 E14       30.10S
DESTIN         CLOUDY    82  68  62 SE10      30.11S
PANAMA CITY    MOSUNNY   83  64  53 E15       30.11F
APPALACHICOLA  MOSUNNY   81  70  69 E9        30.12S
$$





USA.gov is the U.S. government's official web portal to all federal, state and local government web resources and services.